Sombrero Reef 2006,,,,,,,,,,
YYYY,MM,DD,hh,WD,WSPD,GST,BARO,ATMP,WTMP,
2006,1,1,0,102,3.5,3.7,1017.9,23.5,23.7,
2006,1,1,1,85,3.8,4.1,1018.2,23,23.5,
2006,1,1,2,104,5.3,5.4,1018.5,23.1,23.4,
2006,1,1,3,108,4.8,5,1018.7,23.3,23.3,
2006,1,1,4,119,4.9,5.1,1018.6,23.3,23.1,
2006,1,1,5,129,5.3,5.9,1018.2,23.3,23,
2006,1,1,6,136,6.9,7.3,1017.5,23.5,23,
2006,1,1,7,150,7.8,8.3,1017.2,23.6,22.8,
2006,1,1,8,144,6,6.5,1017,23.7,22.7,
2006,1,1,9,137,4.5,4.8,1017.5,23.7,22.7,
2006,1,1,10,132,5.4,5.9,1017.4,23.6,22.8,
2006,1,1,11,137,5.1,5.5,1017.9,23.7,22.9,
2006,1,1,12,135,5,5.2,1018.3,23.8,22.7,
2006,1,1,13,134,5.7,6.1,1019,24.1,22.7,
2006,1,1,14,111,5.2,5.5,1019.8,23.8,22.9,
2006,1,1,15,113,5.6,6,1020.5,24.1,23.1,
2006,1,1,16,122,5.7,6,1020.2,24.5,23.2,
2006,1,1,17,134,5.6,6.1,1019.4,24.7,23.2,
2006,1,1,18,132,6.5,7,1018.5,24.8,23.1,
2006,1,1,19,134,5.4,5.8,1018.2,24.9,23.3,
2006,1,1,20,133,5,5.6,1018,24.9,23.4,
2006,1,1,21,124,5.5,6,1018.3,25.4,23.6,
2006,1,1,22,115,4.3,4.9,1018.6,25.1,23.5,
2006,1,1,23,112,5,5.5,1019.1,24.1,23.5,23.12916667
2006,1,2,0,106,5.8,6.2,1019.4,24,23.4,
2006,1,2,1,104,6,6.5,1019.8,23.8,23.5,
2006,1,2,2,106,5.6,6.1,1019.8,23.7,23.6,
2006,1,2,3,112,6.3,6.7,1019.9,23.7,23.6,
2006,1,2,4,117,6.7,7.6,1019.6,23.6,23.5,
2006,1,2,5,115,7.4,8.1,1019.3,23.6,23.5,
2006,1,2,6,120,7.9,8.6,1019.1,23.7,23.4,
2006,1,2,7,122,11,11.6,1019,23.8,23.5,
2006,1,2,8,129,9.2,10.1,1018.9,23.7,23.4,
2006,1,2,9,125,8.7,9.1,1019,23.7,23.4,
2006,1,2,10,134,7.1,8.8,1019.3,23.7,23.5,
2006,1,2,11,134,8.5,8.8,1019.5,23.6,23.5,
2006,1,2,12,122,8.9,9.2,1019.8,23.6,23.4,
2006,1,2,13,131,8.4,8.6,1020.6,23.8,23.3,
2006,1,2,14,130,9.2,9.7,1021.4,24,23.1,
2006,1,2,15,130,6,6.2,1021.9,24.2,23.2,
2006,1,2,16,131,6.1,6.4,1021.6,24.5,23.4,
2006,1,2,17,129,6.3,6.6,1020.7,24.6,23.5,
2006,1,2,18,129,6.1,6.5,1019.5,24.8,23.6,
2006,1,2,19,131,6.3,6.4,1018.4,24.8,23.8,
2006,1,2,20,131,6.4,6.9,1018,25.2,24,
2006,1,2,21,142,8.2,8.5,1017.6,25.2,23.9,
2006,1,2,22,144,8.8,9.1,1017.3,24.9,23.7,
2006,1,2,23,148,6.6,7.8,1017.6,24.3,23.5,23.50833333
2006,1,3,0,145,6.4,6.9,1018,24.2,23.5,
2006,1,3,1,140,4.1,4.2,1018.5,24,23.3,
2006,1,3,2,146,2.1,2.4,1019,23.7,23.2,
2006,1,3,3,144,1.2,1.3,1019.3,23.5,23.2,
2006,1,3,4,143,1.4,1.5,1019.6,23.3,23.3,
2006,1,3,5,145,2.4,2.5,1019.1,23,23.2,
2006,1,3,6,161,2.4,2.5,1018.8,23.2,23.1,
2006,1,3,7,179,1.4,1.6,1018.7,23.2,23.1,
2006,1,3,8,206,2.1,2.4,1018.4,23.1,23.1,
2006,1,3,9,190,5.3,5.4,1017.6,23.4,23.1,
2006,1,3,10,209,3,3.2,1017.9,23.8,23.1,
2006,1,3,11,227,1.4,1.5,1018.3,23.5,23.2,
2006,1,3,12,229,1.1,1.1,1018.4,23.1,23.2,
2006,1,3,13,220,2.1,2.1,1018.8,23.2,23.5,
2006,1,3,14,213,2.5,2.5,1019.2,23.7,23.6,
2006,1,3,15,231,3.1,3.1,1019.7,23.6,23.8,
2006,1,3,16,254,4.4,4.6,1019.2,23.5,23.8,
2006,1,3,17,268,5,5.3,1018.6,23.6,23.8,
2006,1,3,18,257,5,5.4,1017.6,23.8,23.8,
2006,1,3,19,274,3.4,3.9,1017,23.9,23.9,
2006,1,3,20,285,2.3,2.7,1016.8,24,24.3,
2006,1,3,21,243,3.3,3.7,1016.6,24,23.8,
2006,1,3,22,251,4.6,4.9,1016.8,23.8,23.8,
2006,1,3,23,274,4,4.3,1017.2,23.4,23.8,23.47916667
2006,1,4,0,278,4.7,4.9,1017.5,23.8,23.8,
2006,1,4,1,293,6.1,6.3,1017.9,23.5,23.6,
2006,1,4,2,279,4.8,5.1,1017.9,23.4,23.6,
2006,1,4,3,269,5,5.4,1017.8,23.2,23.5,
2006,1,4,4,266,4.3,4.8,1017.8,23.1,23.4,
2006,1,4,5,293,5.3,6,1017.5,23.2,23.4,
2006,1,4,6,301,6.6,7.3,1017,23.3,23.4,
2006,1,4,7,304,6.8,7.3,1016.9,23.1,23.3,
2006,1,4,8,334,7.2,8.1,1016.9,22.6,23.4,
2006,1,4,9,354,7,7.6,1016.8,21.5,23.4,
2006,1,4,10,356,8.9,9.2,1016.8,22.1,23.3,
2006,1,4,11,9,6.7,7.3,1017.1,21.4,23.3,
2006,1,4,12,12,6.2,6.6,1017.3,20.8,23.1,
2006,1,4,13,6,5.7,6.2,1018.2,20.3,23.3,
2006,1,4,14,356,9.3,10.1,1018.8,20,23.3,
2006,1,4,15,2,6.4,7.1,1019.2,19.5,23.3,
2006,1,4,16,356,3.6,4.1,1018.7,19.6,23.5,
2006,1,4,17,352,4.2,4.9,1018.1,19.6,23.5,
2006,1,4,18,339,3.6,4,1016.8,19.9,23.6,
2006,1,4,19,323,3.1,3.7,1016,20.3,23.7,
2006,1,4,20,321,3.2,3.8,1015.7,20.5,23.7,
2006,1,4,21,304,3,3.6,1015.9,20.6,23.6,
2006,1,4,22,322,5.7,6.2,1016.1,20.7,23.6,
2006,1,4,23,319,6.2,6.7,1016.5,20.3,23.2,23.45
2006,1,5,0,308,6.1,6.7,1016.6,20.5,23.1,
2006,1,5,1,315,5.8,6.3,1017,20.6,22.9,
2006,1,5,2,307,5.1,5.9,1017.2,20.5,22.9,
2006,1,5,3,310,4.8,5.1,1017.2,20.5,22.9,
2006,1,5,4,323,4.9,5.8,1017.3,20.5,22.9,
2006,1,5,5,324,5.3,5.7,1016.8,20.4,22.8,
2006,1,5,6,327,4.8,5.8,1016.3,20.2,22.7,
2006,1,5,7,338,7.1,7.5,1016.1,19.9,22.7,
2006,1,5,8,347,5.5,6.3,1015.7,19.7,22.7,
2006,1,5,9,338,4.3,4.9,1015,19.6,22.7,
2006,1,5,10,347,3.3,3.8,1014.5,19.5,22.8,
2006,1,5,11,329,4.4,5.1,1015,19.4,22.8,
2006,1,5,12,332,4.2,5,1015.5,19.3,22.8,
2006,1,5,13,331,1.7,2.2,1015.8,19.3,23,
2006,1,5,14,329,2,2.4,1016.5,19.4,23,
2006,1,5,15,291,2.7,3.1,1016.7,19.4,23.1,
2006,1,5,16,261,2.6,3.1,1016.2,19.7,23.2,
2006,1,5,17,273,2.6,3.2,1015.2,19.8,23.2,
2006,1,5,18,285,1.9,2.8,1013.8,20,23.3,
2006,1,5,19,304,3.4,3.9,1013.2,20.2,23.4,
2006,1,5,20,298,5.7,6.9,1012.9,20.6,23.5,
2006,1,5,21,275,5.7,6.4,1012.9,21.1,23.5,
2006,1,5,22,298,7.3,7.8,1013,21,23.3,
2006,1,5,23,279,7.5,8.1,1013.1,20.7,23,23.00833333
2006,1,6,0,293,5.9,6.6,1013.4,20.7,22.9,
2006,1,6,1,278,6,6.5,1013.2,20.7,22.9,
2006,1,6,2,274,6,7,1012.8,20.8,22.8,
2006,1,6,3,270,7.2,8.1,1012.7,21,22.8,
2006,1,6,4,271,7.6,7.9,1012.7,21.1,22.8,
2006,1,6,5,272,7.6,8.4,1012.5,21.1,22.8,
2006,1,6,6,273,6.7,7.4,1011.9,21.1,22.8,
2006,1,6,7,270,7.1,8,1011.5,21.2,22.8,
2006,1,6,8,261,7.1,7.7,1011.1,21.4,22.7,
2006,1,6,9,258,8.4,9.1,1010.7,21.8,22.7,
2006,1,6,10,256,8,8.9,1010.6,22,22.7,
2006,1,6,11,257,8.8,9.8,1010.6,22.3,22.7,
2006,1,6,12,320,15.9,17,1012.3,20.5,22.6,
2006,1,6,13,322,15.9,16.7,1013.3,20,22.8,
2006,1,6,14,335,16.8,19.3,1014.2,18.5,22.8,
2006,1,6,15,343,16.8,17.7,1015.2,18,22.7,
2006,1,6,16,336,15.8,16.9,1015.3,17.9,22.6,
2006,1,6,17,331,13.7,15.3,1015.1,18,22.6,
2006,1,6,18,328,12.7,13.8,1014,17.6,22.7,
2006,1,6,19,320,10.9,11.4,1013.3,17.9,22.7,
2006,1,6,20,336,11.9,12.7,1013.6,17.9,22.8,
2006,1,6,21,332,12.8,14.2,1014.1,17.7,22.8,
2006,1,6,22,325,11.4,12.5,1014.7,18.2,22.5,
2006,1,6,23,317,13.3,15.2,1015.4,18,22.3,22.72083333
2006,1,7,0,321,14.2,14.9,1015.8,18.3,22.3,
2006,1,7,1,312,10.3,11,1016.7,17.5,22.2,
2006,1,7,2,319,11.5,13.8,1017.2,17.3,21.8,
2006,1,7,3,335,12.4,13.4,1017.7,16.4,21.5,
2006,1,7,4,355,11.9,13.4,1018.2,16.2,21.4,
2006,1,7,5,1,12.3,13.5,1018.7,14.5,21.9,
2006,1,7,6,348,8.8,9.8,1018.7,15.4,21.7,
2006,1,7,7,5,10.1,12.4,1018.5,15.4,21.6,
2006,1,7,8,12,8.9,9.5,1018.5,14.8,21.4,
2006,1,7,9,12,10,12.4,1018.9,13.7,21.6,
2006,1,7,10,22,10.9,12.3,1018.8,13.2,22,
2006,1,7,11,17,9.6,10.8,1019.9,12.6,22.1,
2006,1,7,12,5,7.6,8.3,1020.8,12.8,22,
2006,1,7,13,2,7.5,8,1022.1,13.1,21.8,
2006,1,7,14,358,8.1,9.2,1023.5,12.8,22.1,
2006,1,7,15,5,6.1,8.2,1024.2,12.4,21.8,
2006,1,7,16,354,4.4,6,1024.5,12.3,21.8,
2006,1,7,17,348,4.1,6.9,1024.1,12.9,21.3,
2006,1,7,18,357,2.4,3.3,1022.5,13.6,21.7,
2006,1,7,19,358,2.8,4.5,1021.6,14.2,21.8,
2006,1,7,20,346,3,6.5,1021.3,14.7,21.7,
2006,1,7,21,348,7.9,9.9,1021.9,14.8,21.4,
2006,1,7,22,337,5.1,7.3,1022.3,15.3,21.9,
2006,1,7,23,341,7.7,10,1022.9,15.1,21.3,21.75416667
2006,1,8,0,343,7.8,11.9,1023.3,15.1,20.7,
2006,1,8,1,345,5.6,8.6,1024,15,20.4,
2006,1,8,2,357,8.2,9,1024.5,14.9,20.5,
2006,1,8,3,350,8.9,10.2,1025.1,15,20.7,
2006,1,8,4,359,4.6,5.4,1025.1,15,20.5,
2006,1,8,5,18,6,6.6,1024.5,14.8,20.4,
2006,1,8,6,29,5.3,5.9,1024.4,14.4,20.5,
2006,1,8,7,25,5.5,6.2,1024.3,14,20.5,
2006,1,8,8,16,5.4,5.9,1023.9,13.4,20.4,
2006,1,8,9,25,4.6,5.4,1023.9,13.1,20.4,
2006,1,8,10,25,5.4,6,1024,13,20.4,
2006,1,8,11,50,4.3,4.8,1024.3,13,20.4,
2006,1,8,12,38,3.2,3.8,1024.6,13.1,20.4,
2006,1,8,13,28,4.4,4.8,1025.8,13.3,20.2,
2006,1,8,14,24,4.2,5,1026.6,13.1,20.2,
2006,1,8,15,35,4.6,5.1,1027.2,13.6,19.9,
2006,1,8,16,30,4.6,5.3,1026.7,14,20.2,
2006,1,8,17,30,4.6,4.9,1026,14.5,20.3,
2006,1,8,18,30,5.1,5.6,1024.9,15,20.4,
2006,1,8,19,36,5.1,5.5,1024,15.8,20.6,
2006,1,8,20,37,5.7,6.6,1023.7,16.7,21,
2006,1,8,21,51,5.8,6.9,1023.6,17.5,21.3,
2006,1,8,22,48,6.7,7.5,1023.7,18.1,21.4,
2006,1,8,23,39,7.2,7.8,1023.9,18.2,21.5,20.55
2006,1,9,0,97,8.7,9.2,1024.5,19.5,21.7,
2006,1,9,1,96,8.2,9,1025.1,19.8,21.7,
2006,1,9,2,85,7.7,8.7,1025.6,19.8,21.6,
2006,1,9,3,44,6.3,6.9,1026,18.3,21.3,
2006,1,9,4,49,6.4,6.9,1025.9,18.3,21,
2006,1,9,5,51,6.7,7.3,1025.4,18.5,20.3,
2006,1,9,6,54,6.3,7.2,1025,18.3,20.2,
2006,1,9,7,95,12.9,13.7,1024.2,20.6,20.1,
2006,1,9,8,96,11.6,12.5,1023.7,20.9,20.1,
2006,1,9,9,105,11.7,13.3,1023.7,21.2,20.4,
2006,1,9,10,103,12.3,13.4,1023.8,21.4,21,
2006,1,9,11,109,11.5,12.7,1024.2,21.6,21.2,
2006,1,9,12,105,10.1,11.7,1024.9,22,21.4,
2006,1,9,13,103,10.3,11.7,1025.5,22,22,
2006,1,9,14,96,8.7,10.4,1026.3,22.3,22.5,
2006,1,9,15,101,9.1,11,1026.9,22.6,22.2,
2006,1,9,16,105,11.5,12.3,1026.4,23,21.8,
2006,1,9,17,97,6.7,7.9,1026,22.8,22.2,
2006,1,9,18,95,8.5,10.6,1024.8,22.9,22.3,
2006,1,9,19,90,8.4,10.4,1023.9,23,22.3,
2006,1,9,20,89,9,11.5,1023.2,23.1,22.3,
2006,1,9,21,84,5.8,9,1023.3,23.2,22.1,
2006,1,9,22,78,4.4,6.7,1023.2,22.8,22.4,
2006,1,9,23,77,5,5.9,1023.4,22.7,22.4,21.52083333
2006,1,10,0,50,3.4,6.8,1023.6,21,22.6,
2006,1,10,1,56,6.9,7.7,1024.4,20.9,22.7,
2006,1,10,2,61,4.1,5.1,1024.6,20.9,22.6,
2006,1,10,3,79,4.2,6,1024.5,22.7,22.6,
2006,1,10,4,84,8.1,10.8,1024.3,22.9,22.6,
2006,1,10,5,98,10.6,11.7,1024.1,23.1,21.9,
2006,1,10,6,91,10.6,11.8,1023.4,23,21.5,
2006,1,10,7,96,7.3,8.5,1023.2,23.1,21.2,
2006,1,10,8,91,7.2,8.9,1022.5,23,21.2,
2006,1,10,9,93,8.7,10.1,1022.3,22.9,21.2,
2006,1,10,10,96,5.5,7.8,1022.7,23,22.2,
2006,1,10,11,96,6,7.8,1023,23,22.3,
2006,1,10,12,95,4.4,5.4,1023.4,23.1,22.4,
2006,1,10,13,96,5.9,8.7,1023.7,23.1,23,
2006,1,10,14,96,7.1,8.6,1023.8,23.3,23,
2006,1,10,15,96,7.2,8.5,1024.5,23.4,23.1,
2006,1,10,16,94,5.1,6.2,1024.3,23.6,23.3,
2006,1,10,17,98,4,6.3,1023.4,23.6,23.3,
2006,1,10,18,95,1.8,2.3,1022.4,23.6,23.4,
2006,1,10,19,94,2.2,2.8,1021.7,23.6,22.7,
2006,1,10,20,92,1.8,2.3,1021.4,23.5,22.7,
2006,1,10,21,97,1.6,1.9,1021.5,23.4,22.3,
2006,1,10,22,95,1.7,2,1021.4,23.4,21.9,
2006,1,10,23,83,1.9,2.2,1021.9,22.7,22,22.40416667
2006,1,11,0,74,2.5,2.9,1021.9,22.6,22.1,
2006,1,11,1,93,2,2.3,1022,23,22.2,
2006,1,11,2,85,1.3,1.8,1022.3,22.9,22.2,
2006,1,11,3,80,2.5,3.2,1022.4,22.7,22.2,
2006,1,11,4,80,3.9,4.9,1022,22.4,21.5,
2006,1,11,5,110,2.3,2.9,1021.7,23.3,21,
2006,1,11,6,107,1.5,2.1,1021.2,23.1,21,
2006,1,11,7,107,0.6,1,1020.4,23,21.1,
2006,1,11,8,105,1.1,1.6,1019.7,23,21.2,
2006,1,11,9,108,0.8,1.1,1019.7,22.9,21.3,
2006,1,11,10,96,0.5,0.9,1019.5,22.8,21.3,
2006,1,11,11,104,0.3,0.8,1019.6,23,21.5,
2006,1,11,12,108,4.5,5.5,1019.8,23.1,21.8,
2006,1,11,13,97,1.6,3.2,1020,22.9,22,
2006,1,11,14,95,0.1,0.3,1020.9,23,21.9,
2006,1,11,15,92,0.1,0.2,1021.2,23.2,21.8,
2006,1,11,16,97,0.1,0.3,1021,23.4,21.8,
2006,1,11,17,0,0,0,1020.4,21.5,21.9,
2006,1,11,18,999,99,99,1019.2,22.3,21.8,
2006,1,11,19,999,99,99,1018.8,21.9,21.7,
2006,1,11,20,999,99,99,1018.3,22.2,21.7,
2006,1,11,21,999,99,99,1018.4,22.2,21.7,
2006,1,11,22,999,99,99,1018.6,21.8,21.8,
2006,1,11,23,999,99,99,1018.7,21.8,22,21.6875
2006,1,12,0,999,99,99,1018.4,21.9,21.9,
2006,1,12,1,999,99,99,1018.5,21.4,21.9,
2006,1,12,2,999,99,99,1019,21.6,21.9,
2006,1,12,3,999,99,99,1019.1,21.2,21.9,
2006,1,12,4,0,0,0.1,1019,21.1,21.8,
2006,1,12,5,999,99,99,1018.7,21,21.1,
2006,1,12,6,999,99,99,1018.2,20.7,21.2,
2006,1,12,7,999,99,99,1017.7,20.4,21.4,
2006,1,12,8,999,99,99,1017.2,20.3,21.2,
2006,1,12,9,999,99,99,1016.5,20.3,21.3,
2006,1,12,10,999,99,99,1016.3,20.2,21.3,
2006,1,12,11,999,99,99,1017,20.2,21.5,
2006,1,12,12,999,99,99,1017.8,20.3,21.2,
2006,1,12,13,999,99,99,1018.3,20.3,22.4,
2006,1,12,14,999,99,99,1018.7,20.6,22.6,
2006,1,12,15,999,99,99,1019.1,20.7,22.6,
2006,1,12,16,999,99,99,1018.8,21.2,22.8,
2006,1,12,17,999,99,99,1017.9,21.5,22.6,
2006,1,12,18,999,99,99,1017.2,21.7,22.6,
2006,1,12,19,999,99,99,1016.2,22.3,22.3,
2006,1,12,20,999,99,99,1016.2,22.6,22.2,
2006,1,12,21,999,99,99,1016.3,22.7,21.5,
2006,1,12,22,999,99,99,1016.4,22.6,21.5,
2006,1,12,23,999,99,99,1016.6,22.1,21.9,21.85833333
2006,1,13,0,999,99,99,1016.9,22.1,22,
2006,1,13,1,999,99,99,1016.9,21.8,22,
2006,1,13,2,999,99,99,1017.2,21.9,22.1,
2006,1,13,3,999,99,99,1017.4,21.6,22.1,
2006,1,13,4,999,99,99,1017,22.1,22.3,
2006,1,13,5,999,99,99,1017.2,21.8,22.3,
2006,1,13,6,999,99,99,1017,21.8,22.3,
2006,1,13,7,999,99,99,1016.7,21.9,22.2,
2006,1,13,8,999,99,99,1016.2,21.7,22,
2006,1,13,9,999,99,99,1016.1,21.7,21.6,
2006,1,13,10,999,99,99,1016,22.2,21.6,
2006,1,13,11,999,99,99,1016.3,22.9,21.5,
2006,1,13,12,999,99,99,1016.7,23.3,21.5,
2006,1,13,13,999,99,99,1016.8,23.5,22.3,
2006,1,13,14,999,99,99,1018.1,23.8,22.4,
2006,1,13,15,999,99,99,1018.2,24,22.3,
2006,1,13,16,999,99,99,1018.5,24.6,22.5,
2006,1,13,17,999,99,99,1017.3,24.5,22.8,
2006,1,13,18,999,99,99,1016.2,24.7,23,
2006,1,13,19,999,99,99,1015.4,24.9,22.6,
2006,1,13,20,999,99,99,1015.2,24.8,22.5,
2006,1,13,21,999,99,99,1014.8,24.8,23,
2006,1,13,22,999,99,99,1014.8,24.4,22.9,
2006,1,13,23,999,99,99,1014.4,24.1,22.4,22.25833333
2006,1,14,0,999,99,99,1014.5,23.9,22.3,
2006,1,14,1,999,99,99,1014.8,23.8,22.3,
2006,1,14,2,999,99,99,1015.3,23.6,22.2,
2006,1,14,3,999,99,99,1015.2,22.6,22.3,
2006,1,14,4,999,99,99,1014.7,22.4,22.6,
2006,1,14,5,999,99,99,1014,22.4,22.5,
2006,1,14,6,256,9.7,10,1013.4,22.8,21.8,
2006,1,14,7,258,11.4,11.6,1012.5,22.6,21.6,
2006,1,14,8,269,11.7,12.4,1012,22.4,21.6,
2006,1,14,9,267,13.2,14.3,1011.5,22.3,21.5,
2006,1,14,10,286,14.8,16.3,1011.5,22.9,21.5,
2006,1,14,11,323,16.7,19,1013,20.4,21.8,
2006,1,14,12,323,16.3,18.1,1013.9,20.3,21.9,
2006,1,14,13,315,18.2,19.7,1014.9,20,21.7,
2006,1,14,14,309,19.8,21.5,1015.7,19.6,21.6,
2006,1,14,15,322,16.8,18.6,1016.9,19.4,21.7,
2006,1,14,16,319,16,16.8,1016.8,19.3,21.9,
2006,1,14,17,317,19.8,21.8,1016,19.1,21.8,
2006,1,14,18,314,15.6,17.2,1015.6,18.9,21.8,
2006,1,14,19,316,16.8,18.2,1015.3,18.2,21.9,
2006,1,14,20,312,16.5,17.7,1015,17.8,21.5,
2006,1,14,21,325,15.6,17.9,1015.6,17.6,21.2,
2006,1,14,22,317,17.2,19,1015.6,17.6,21.1,
2006,1,14,23,323,17,18.4,1016.2,17.6,21,21.79583333
2006,1,15,0,320,15.4,16.9,1016.3,17.6,21.2,
2006,1,15,1,327,14.4,15.1,1016.5,17.3,21.1,
2006,1,15,2,320,13.3,16.7,1016.5,17.7,21.3,
2006,1,15,3,310,14.8,16,1016.3,17.7,21.3,
2006,1,15,4,317,13.3,14.5,1016.1,17.7,21.6,
2006,1,15,5,323,12.9,14.6,1016.4,17.9,21.8,
2006,1,15,6,326,12.9,14.6,1016.3,18.1,21.5,
2006,1,15,7,331,12.9,14.4,1016.3,18,21.8,
2006,1,15,8,342,14.5,15.5,1016.5,17.6,21.5,
2006,1,15,9,349,12.3,14,1016.4,17.1,21.3,
2006,1,15,10,341,12,13.1,1016.6,16.7,21.3,
2006,1,15,11,343,11.6,12.4,1017.6,16.5,21.1,
2006,1,15,12,349,9.3,10.4,1018.5,16.3,20.9,
2006,1,15,13,0,10.1,10.8,1018.9,16.1,20.7,
2006,1,15,14,358,10.2,11.1,1019.5,15.8,20.6,
2006,1,15,15,3,8.2,9.2,1020.3,14.7,20.8,
2006,1,15,16,359,8.6,9.8,1020.2,14.4,20.9,
2006,1,15,17,356,9.5,10.5,1019.4,13.9,21.3,
2006,1,15,18,353,8.3,9.1,1018.7,14.2,21.6,
2006,1,15,19,355,8.1,8.5,1018.3,14.5,21.7,
2006,1,15,20,352,4.6,5.3,1018.2,15,21.7,
2006,1,15,21,348,2.6,3.4,1018.5,15.5,21.6,
2006,1,15,22,344,1.5,2.1,1018.9,16.1,21.3,
2006,1,15,23,342,0.7,1,1019,15.8,21.5,21.30833333
2006,1,16,0,342,0.2,0.9,1018.9,15.8,21.4,
2006,1,16,1,0,0,0.2,1018.9,16.1,21.7,
2006,1,16,2,2,1.6,2.2,1018.9,16.3,21.6,
2006,1,16,3,8,2.3,2.6,1019.1,16.5,21.3,
2006,1,16,4,15,3,3.5,1019.3,16.6,21.3,
2006,1,16,5,5,3.3,4,1019.2,16.7,21.3,
2006,1,16,6,12,3.7,4,1018.7,16.7,21.8,
2006,1,16,7,14,3.1,3.4,1018.5,16.7,21.9,
2006,1,16,8,14,3.7,4,1018.5,16.8,21.6,
2006,1,16,9,15,3.8,4.2,1018.5,16.9,21.4,
2006,1,16,10,23,4.6,4.8,1018.7,16.8,21.4,
2006,1,16,11,24,5.9,6.4,1018.8,16.8,21.3,
2006,1,16,12,37,4.6,4.9,1018.9,17,21.1,
2006,1,16,13,64,3.6,3.9,1019.4,17.3,20.9,
2006,1,16,14,63,3.8,4.3,1020.1,17.6,21.3,
2006,1,16,15,52,4.2,4.5,1020.8,17.7,21.2,
2006,1,16,16,67,4.4,4.9,1020.2,18,21.4,
2006,1,16,17,67,4.8,5,1019.3,18.4,21.6,
2006,1,16,18,75,5.1,5.4,1018.1,18.9,21.8,
2006,1,16,19,77,5,5.4,1017.3,19.6,22,
2006,1,16,20,152,6.6,7.4,1017,21.7,22,
2006,1,16,21,150,8.3,9,1016.8,21.6,22.1,
2006,1,16,22,143,7.9,8.5,1017,21.5,22.1,
2006,1,16,23,145,7.8,8.6,1017,21,22.1,21.56666667
2006,1,17,0,136,8.7,9.1,1017.4,20.9,22,
2006,1,17,1,136,7.6,8.5,1017.7,21,21.9,
2006,1,17,2,138,8.9,9.4,1017.6,21.2,21.9,
2006,1,17,3,144,9.8,10.5,1017.5,21.3,21.9,
2006,1,17,4,134,9.4,10.1,1017.3,21.3,21.7,
2006,1,17,5,133,10.5,11.6,1017,21.4,21.7,
2006,1,17,6,137,9.3,9.9,1016.8,21.5,21.4,
2006,1,17,7,139,9.9,10.5,1016.5,21.7,21.3,
2006,1,17,8,143,9.6,10.2,1015.8,21.9,21.3,
2006,1,17,9,147,10.4,11.8,1015.8,22.1,21.2,
2006,1,17,10,148,11.2,11.8,1015.9,22.3,21,
2006,1,17,11,146,10.1,11.2,1016,22.4,20.9,
2006,1,17,12,148,12.3,13.1,1016.1,22.7,21,
2006,1,17,13,162,11.4,12.4,1016.7,23.4,21.9,
2006,1,17,14,180,13.6,14.6,1016.8,23,22.2,
2006,1,17,15,172,15.1,15.9,1017.3,23.1,22.1,
2006,1,17,16,171,14,14.6,1017.4,23.3,22.4,
2006,1,17,17,166,13.7,14.8,1016.3,23.5,23.4,
2006,1,17,18,160,11.7,12.4,1015.7,23.7,23.5,
2006,1,17,19,160,11.6,12.2,1015.3,24,23.5,
2006,1,17,20,161,10.2,11.6,1015,24.3,23.5,
2006,1,17,21,150,9.7,11.1,1015,24.5,23.5,
2006,1,17,22,148,10.4,10.8,1015.4,24.3,23.5,
2006,1,17,23,140,7.6,8.4,1016.4,23.9,23,22.15416667
2006,1,18,0,141,8.2,8.6,1017.1,23.9,22.8,
2006,1,18,1,148,9,9.4,1017.9,23.9,22.7,
2006,1,18,2,151,11,11.5,1017.7,23.8,21.9,
2006,1,18,4,169,7.7,7.9,1018.5,24,21.8,
2006,1,18,5,174,9,9.2,1018.3,23.9,22.4,
2006,1,18,6,184,9.7,10,1017.8,23.5,22.8,
2006,1,18,7,181,6.6,7.1,1018.2,23.6,22.6,
2006,1,18,8,193,7.3,7.7,1018.4,23.5,22.5,
2006,1,18,9,183,5.7,5.7,1018.9,23.4,22.3,
2006,1,18,10,188,7.8,8.5,1019.9,23.4,22.4,
2006,1,18,11,256,8.1,13,1021,22.8,22.4,
2006,1,18,12,350,15.6,16.8,1022.5,18.8,20.6,
2006,1,18,13,357,15.2,16.7,1023.7,18.5,21.5,
2006,1,18,14,2,14,15.5,1024.5,18.6,21.4,
2006,1,18,15,1,15.8,18,1025.3,18.5,21.3,
2006,1,18,16,359,15.3,16,1024.9,18.3,21.4,
2006,1,18,17,3,11.4,13,1024.9,18.2,22.1,
2006,1,18,18,357,13.6,14.3,1024.3,17.8,23.1,
2006,1,18,19,357,11.6,12.3,1023.9,17.8,23.1,
2006,1,18,20,0,11.6,12.5,1024,17.7,22.9,
2006,1,18,21,21,10.9,11.5,1024,18.4,21.7,
2006,1,18,22,32,11,11.9,1024.2,18.6,21.6,
2006,1,18,23,40,10.9,11.6,1024.5,18.3,21.7,22.16666667
2006,1,19,0,37,11,12.1,1024.7,18.4,20.7,
2006,1,19,1,28,10.7,11.6,1025.3,18,20.7,
2006,1,19,2,27,9.6,10.7,1025.7,17.7,20.7,
2006,1,19,3,22,9.7,10.3,1025.6,17.6,21,
2006,1,19,4,36,10.3,11.7,1025.2,18.2,22.1,
2006,1,19,5,29,9.3,10.6,1024.8,18.4,22.3,
2006,1,19,6,24,10.5,11.3,1024.3,17,22.2,
2006,1,19,7,30,10.3,11.1,1023.7,16.9,22.5,
2006,1,19,8,29,9.7,10.9,1023.4,16.9,22.5,
2006,1,19,9,29,10.6,11.5,1023.2,16.6,22.2,
2006,1,19,10,27,9.5,10.6,1023.5,16.9,22,
2006,1,19,11,36,10,11.8,1023.6,17.2,21.9,
2006,1,19,12,35,10.5,11.5,1024,17.3,21.5,
2006,1,19,13,43,9.2,10,1024.4,17.9,21.2,
2006,1,19,14,33,9.3,9.9,1025.2,17.7,21.9,
2006,1,19,15,45,9.1,9.6,1025.8,17.8,22.2,
2006,1,19,16,56,9.3,10.2,1025.2,19.3,22.4,
2006,1,19,17,57,9.3,10,1024.3,19.9,22.6,
2006,1,19,18,60,8.4,10.2,1023.4,20.4,22.9,
2006,1,19,19,56,10,10.4,1022.5,20.5,22.9,
2006,1,19,20,63,10,10.8,1022,20.5,23.1,
2006,1,19,21,68,12.5,13.2,1021.5,21.2,22.8,
2006,1,19,22,62,10.5,11.1,1022.1,20.5,22,
2006,1,19,23,60,10.1,10.6,1022.4,20.2,21.6,21.99583333
2006,1,20,0,57,9.7,10.1,1022.6,20.2,21,
2006,1,20,1,55,10,10.6,1022.9,20.8,21.2,
2006,1,20,2,56,9.2,9.8,1023.3,20.7,21.8,
2006,1,20,3,53,7.6,7.9,1023.7,20.7,21.9,
2006,1,20,4,61,6.5,6.9,1023.4,20.7,22,
2006,1,20,5,74,5.8,6.2,1022.7,21.3,22.1,
2006,1,20,6,93,9.4,10,1022,22.6,22.2,
2006,1,20,7,92,9.3,10.3,1021.6,22.6,22.3,
2006,1,20,8,103,10.1,10.8,1021.1,23.1,22.3,
2006,1,20,9,99,9.9,11.1,1021.1,23,22.3,
2006,1,20,10,99,11,11.6,1020.9,23,22.3,
2006,1,20,11,99,11.8,12.3,1021.4,23,22.1,
2006,1,20,12,98,10.3,12.1,1021.9,23,22.1,
2006,1,20,13,100,11.1,11.7,1022.3,23.2,22.6,
2006,1,20,14,104,12,12.4,1022.7,23.2,22.8,
2006,1,20,15,98,10.1,10.6,1023.3,23.4,22.7,
2006,1,20,16,104,11,11.6,1023.1,23.5,22.9,
2006,1,20,17,104,11,11.9,1022.2,23.6,23.1,
2006,1,20,18,107,9.8,10.5,1021.2,23.7,23.5,
2006,1,20,19,104,10.6,12.2,1020.2,23.7,23.8,
2006,1,20,20,101,11.1,11.8,1020,23.9,23.8,
2006,1,20,21,96,9.7,10.5,1020.2,23.7,23.8,
2006,1,20,22,95,9.5,10.8,1020.3,23.8,23.8,
2006,1,20,23,90,9.2,10.7,1020.8,23.5,22.7,22.54583333
2006,1,21,0,85,10.6,11.4,1020.9,23.4,22.6,
2006,1,21,1,87,11.2,12.3,1021,23.3,22.6,
2006,1,21,2,89,12.2,13,1020.8,23.4,22.4,
2006,1,21,3,97,11.9,12.8,1020.9,23.5,22.4,
2006,1,21,4,107,11.2,12.2,1021.5,23.3,22.6,
2006,1,21,5,99,11.4,12.3,1020.9,23.4,22.5,
2006,1,21,6,104,10.8,11.7,1020.9,23.4,23.5,
2006,1,21,7,101,10,11.1,1020.5,23.5,23.6,
2006,1,21,8,97,10,11,1020.4,23.4,23.7,
2006,1,21,9,104,10.3,11.2,1020.3,23.4,23.8,
2006,1,21,10,99,7.5,7.9,1020.6,23.3,23.8,
2006,1,21,11,104,10.5,11.1,1021.1,23.5,23.8,
2006,1,21,12,105,8.8,9.5,1021.6,23.2,23.6,
2006,1,21,13,106,8,8.3,1022.1,23.4,23.1,
2006,1,21,14,107,9.3,9.8,1022.8,23.7,22.7,
2006,1,21,15,105,9.6,10.8,1023.2,23.8,22.8,
2006,1,21,16,93,8.8,9.4,1023.1,23.9,24.6,
2006,1,21,17,91,8.7,9.4,1022.5,23.9,24.7,
2006,1,21,18,96,8.8,9.3,1021.5,24,24.8,
2006,1,21,19,91,7.5,8.6,1021.3,24.1,24.9,
2006,1,21,20,87,6.7,7.2,1021,24.1,25,
2006,1,21,21,80,7.8,8.2,1021.2,24,24.3,
2006,1,21,22,73,8,8.6,1021.5,23.8,24.4,
2006,1,21,23,71,8.1,8.6,1021.7,23,24.4,23.60833333
2006,1,22,0,63,9.2,9.8,1021.9,22.9,24.4,
2006,1,22,1,57,8.9,9.3,1021.9,22.7,24.3,
2006,1,22,2,67,8.1,8.9,1022.3,22.7,24.3,
2006,1,22,3,70,8.5,9,1022.4,22.7,24.1,
2006,1,22,4,82,9.3,10.1,1022.1,23.4,23.9,
2006,1,22,5,93,9.7,10.6,1021.8,23.8,24.1,
2006,1,22,6,98,10.9,11.8,1021.4,23.7,24.2,
2006,1,22,7,101,10.9,11.9,1021.5,23.6,24.1,
2006,1,22,8,104,11,11.8,1020.9,23.6,24.1,
2006,1,22,9,103,11.1,12,1020.5,23.5,24.1,
2006,1,22,10,100,10.3,11.4,1020.8,23.5,24.1,
2006,1,22,11,98,10.9,12.1,1021.1,23.6,24.1,
2006,1,22,12,95,12.1,12.8,1021,23.6,24.1,
2006,1,22,13,96,10.7,11.4,1021.7,23.4,23.8,
2006,1,22,14,100,12.2,13.5,1022.2,23.9,24,
2006,1,22,15,104,11.3,12.3,1023.2,24.1,24,
2006,1,22,16,101,10,10.8,1023,24.2,24.1,
2006,1,22,17,95,10.5,11.2,1022,24,24.1,
2006,1,22,18,93,11.2,11.7,1020.6,24.1,24.1,
2006,1,22,19,88,10.1,11.4,1019.9,24.1,24.2,
2006,1,22,20,91,10.3,11,1019.5,24.3,24.2,
2006,1,22,21,88,10.8,11.6,1019.7,24.2,24.2,
2006,1,22,22,92,11.5,12.4,1019.8,24,24.3,
2006,1,22,23,101,10.8,11.7,1020.5,23.9,24.1,24.125
2006,1,23,0,104,11.1,12.1,1020.4,23.1,24.1,
2006,1,23,1,114,12.3,13.5,1020.6,23.7,24.1,
2006,1,23,2,105,10.7,11.6,1020.9,23.9,24.1,
2006,1,23,3,110,11.8,12.6,1020.5,23.9,24,
2006,1,23,4,108,11.5,13,1020.2,23.9,24.1,
2006,1,23,5,116,11.8,13.1,1019.8,23.9,23.7,
2006,1,23,6,115,11,11.8,1019.4,23.8,23.7,
2006,1,23,7,120,11.2,12.3,1019.2,23.8,23.6,
2006,1,23,8,120,10,11.1,1019,23.8,24.2,
2006,1,23,9,119,9.8,10.7,1018.8,23.8,23.6,
2006,1,23,10,118,11.1,12.1,1018.4,23.7,24,
2006,1,23,11,121,10.9,11.9,1018.5,23.8,24.1,
2006,1,23,12,124,10.9,11.7,1019.2,23.8,24.1,
2006,1,23,13,125,9.7,10.7,1019.8,23.8,24.1,
2006,1,23,14,130,10.2,11,1020.4,24.1,24,
2006,1,23,15,134,10,10.6,1021,24.4,24.8,
2006,1,23,16,134,9.3,10,1021.2,24.4,24.9,
2006,1,23,17,122,8.7,9.5,1020.4,24.5,24.9,
2006,1,23,18,118,8.1,8.9,1019.3,24.6,25.1,
2006,1,23,19,115,8.5,9,1018.8,24.5,25.1,
2006,1,23,20,109,8,8.5,1018.3,24.7,25,
2006,1,23,21,110,8.3,9,1018.1,24.6,24.2,
2006,1,23,22,111,8.9,9.3,1018.6,24.4,24.3,
2006,1,23,23,100,8.4,9,1018.6,23.8,24.3,24.25416667
2006,1,24,0,101,7.9,8.5,1018.8,23.7,24.3,
2006,1,24,1,108,8.8,9.2,1019.1,23.8,24.3,
2006,1,24,2,105,8.4,8.9,1018.9,23.8,24.3,
2006,1,24,3,105,8.6,9.5,1019,23.8,24.3,
2006,1,24,4,113,7.8,8.3,1019.3,23.9,24.2,
2006,1,24,5,106,6.9,7.3,1019,23.7,24,
2006,1,24,6,106,6.8,7.6,1018.7,23.7,23.9,
2006,1,24,7,120,6.2,6.6,1018.6,23.6,23.9,
2006,1,24,8,139,6.6,7.1,1018.1,23.6,23.9,